Date,TemperatureHighF,TemperatureAvgF,TemperatureLowF,DewpointHighF,DewpointAvgF,DewpointLowF,HumidityHigh,HumidityAvg,HumidityLow,PressureMaxIn,PressureMinIn,WindSpeedMaxMPH,WindSpeedAvgMPH,GustSpeedMaxMPH,PrecipitationSumIn
2013-4-1,72.0,70.3,69.0,71.0,69.9,69.0,100,99,94,30.00,29.89,20,8,21,0.03
2013-4-2,74.0,71.2,70.0,73.0,71.1,70.0,100,99,96,29.94,29.75,16,8,16,0.04
2013-4-3,73.0,66.6,57.0,71.0,62.3,54.0,100,87,69,30.09,29.77,27,10,27,0.00
2013-4-4,74.0,62.6,55.0,55.0,50.7,20.0,91,69,38,30.16,30.02,19,8,19,0.00
2013-4-5,63.0,58.6,50.0,59.0,53.2,47.0,90,83,73,30.25,30.06,14,8,16,0.00
2013-4-6,75.0,68.4,62.0,65.0,61.6,58.0,91,80,63,30.06,29.87,26,10,28,0.00
2013-4-7,76.0,71.2,66.0,68.0,65.7,64.0,95,84,70,29.91,29.78,27,10,29,0.00
2013-4-8,77.0,72.7,70.0,72.0,70.0,68.0,98,92,80,29.80,29.64,26,11,27,0.00
2013-4-9,80.0,74.4,71.0,74.0,71.4,70.0,98,91,77,29.71,29.56,29,13,33,0.00
2013-4-10,79.0,69.1,59.0,75.0,65.9,52.0,98,90,71,29.82,29.60,26,12,29,0.00
2013-4-11,67.0,58.9,50.0,55.0,48.4,42.0,95,70,48,29.95,29.77,29,9,29,0.20
2013-4-12,70.0,65.0,58.0,64.0,60.2,53.0,96,85,78,29.95,29.84,19,8,22,0.00
2013-4-13,72.0,69.5,67.0,67.0,65.1,63.0,93,86,77,29.92,29.72,23,10,23,0.00
2013-4-14,83.0,73.6,67.0,74.0,70.0,66.0,100,89,69,29.77,29.63,21,8,22,0.00
2013-4-15,82.0,75.5,71.0,73.0,71.2,69.0,99,88,71,29.79,29.68,23,11,24,0.00
2013-4-16,76.0,74.1,73.0,75.0,72.7,71.0,100,96,90,29.85,29.74,22,9,22,0.00
2013-4-17,79.0,75.4,73.0,76.0,74.5,73.0,100,97,87,29.84,29.63,23,10,24,0.00
2013-4-18,79.0,69.7,60.0,76.0,66.1,50.0,100,89,67,30.02,29.60,29,12,30,0.00
2013-4-19,68.0,59.7,54.0,52.0,42.6,33.0,73,55,32,30.29,30.02,27,9,28,0.00
2013-4-20,68.0,62.8,52.0,58.0,50.3,44.0,83,65,46,30.19,30.01,18,8,18,0.00
2013-4-21,73.0,68.7,64.0,67.0,61.8,56.0,93,79,70,30.09,29.98,21,8,69,0.00
2013-4-22,76.0,71.1,68.0,70.0,67.8,66.0,95,90,78,30.05,29.89,18,10,18,0.00
2013-4-23,79.0,72.9,70.0,73.0,70.6,68.0,100,93,79,29.92,29.80,26,10,29,0.00
2013-4-24,73.0,58.8,51.0,73.0,54.9,48.0,100,87,69,30.17,29.92,30,10,30,0.06
2013-4-25,68.0,63.5,61.0,68.0,58.1,51.0,100,83,64,30.24,30.11,17,8,18,0.21
2013-4-26,76.0,72.4,68.0,74.0,71.4,68.0,100,97,87,30.13,29.99,23,8,24,0.00
2013-4-27,78.0,73.9,72.0,74.0,72.2,1.0,100,95,85,30.05,29.89,19,8,19,0.00
2013-4-28,74.0,70.9,66.0,73.0,69.9,66.0,100,97,91,30.00,29.81,25,7,25,1.12
2013-4-29,75.0,71.7,67.0,74.0,71.3,67.0,100,99,92,29.91,29.75,23,6,23,2.61
2013-4-30,76.0,71.9,65.0,74.0,70.4,7.0,100,95,89,29.80,29.69,20,8,22,0.20